Regional Weather Roundup
Issued by NWS

Home | Current Version | Previous Version | Graphics & Text | Print | Product List | Glossary On
Versions: 1 2 3 4 5 6 7 8 9 10 11 12 13 14 15 16 17 18 19 20 21 22 23 24 25 26 27 28 29 30 31 32 33 34 35 36 37 38 39 40 41 42 43 44 45 46 47 48 49 50
000
ASUS43 KMPX 210201
RWRMN
WEATHER ROUNDUP FOR MINNESOTA
NATIONAL WEATHER SERVICE TWIN CITIES/CHANHASSEN MN
800 PM CST SAT JAN 20 2018


NOTE: "FAIR" INDICATES FEW OR NO CLOUDS BELOW 12,000 FEET WITH NO
SIGNIFICANT WEATHER AND/OR OBSTRUCTIONS TO VISIBILITY. N/A MEANS
CURRENT SKY AND/OR WEATHER CONDITIONS ARE NOT AVAILABLE.

MNZ060>063-068>070-210300-
   Twin Cities Metro

CITY           SKY/WX    TMP DP  RH WIND       PRES   REMARKS
TWIN CITIES    MOCLDY    38  32  79 SW3       29.93S
ST PAUL        CLOUDY    33  31  92 CALM      29.94S
CRYSTAL        FAIR      35  29  78 CALM      29.91S
BLAINE         MOCLDY    37  32  81 CALM      29.91F
LAKEVILLE      FAIR      28  28 100 CALM      29.92F
EDEN PRAIRIE   FAIR      38  32  79 W3        29.91S
SOUTH ST PAUL  FAIR      34  32  92 CALM      29.92S
LAKE ELMO      FAIR      34  32  93 CALM      29.93S
$$
MNZ001>005-007-008-013>017-022>024-027-028-210300-
   Northwest Minnesota

CITY           SKY/WX    TMP DP  RH WIND       PRES   REMARKS
BEMIDJI        FAIR      21  19  91 W3        29.87S
HALLOCK        FAIR      18  16  93 S6        29.85S WCI   9
ROSEAU         FAIR      25  19  80 SW9       29.85R WCI  15
WARROAD        FAIR      27  25  93 SW9       29.85R WCI  17
CROOKSTON      FAIR      21  19  93 S7        29.89S WCI  13
FOSSTON        FAIR      19  18  93 S7        29.89S WCI  10
DETROIT LAKES  FAIR      28  28 100 CALM      29.91S
MOORHEAD       FAIR      32  28  86 S3        29.92S
PARK RAPIDS    FOG       19  16  88 SW3       29.88R VSB 1/2
MAHNOMEN       FAIR      24  24  96 S5        29.89R WCI  19
$$
MNZ006-009>011-018-025>026-210300-
   North Central Minnesota

CITY           SKY/WX    TMP DP  RH WIND       PRES   REMARKS
BAUDETTE       FAIR      26  23  88 SW6       29.83S WCI  19
FLAG ISLAND    FAIR      23  21  93 CALM      29.82S
INTL FALLS     FAIR      27  23  85 W6        29.85R WCI  20
WASKISH        FAIR      28  25  86 SW6       29.87S WCI  22
BIG FORK       FAIR      23  21  93 CALM      29.87R
LONGVILLE      FAIR      21  19  93 CALM      29.89R
GRAND RAPIDS   FAIR      29  26  89 CALM      29.89S
CRANE LAKE     FAIR      19  19 100 CALM      29.88R
ORR            FAIR      28  25  86 CALM      29.84S
COOK           MOCLDY    27  25  93 CALM      29.87S
WALKER         FAIR      26  22  84 W3        29.88R
$$
MNZ012-019>021-037-210300-
   Northeast Minnesota

CITY           SKY/WX    TMP DP  RH WIND       PRES   REMARKS
DULUTH         FAIR      31  25  78 W7        29.86R WCI  24
HIBBING        FOG       17  17 100 NW3       29.87R VSB 3/4
EVELETH        FOG       20  17  88 CALM      29.88S VSB 1/2
DULUTH HARBOR  FAIR      36  28  75 SW7       29.89S
TWO HARBORS    FAIR      36  28  75 W5        29.85S
SILVER BAY     FAIR      27  27 100 CALM      29.85S
GRAND MARAIS     N/A     31  30  96 N3        29.88S
G MARAIS ARPRT FAIR      23  19  86 CALM      29.85R
$$
MNZ029>031-032-039>041-046>048-054>057-064-210300-
   West Central Minnesota

CITY           SKY/WX    TMP DP  RH WIND       PRES   REMARKS
FERGUS FALLS   FAIR      30  28  93 CALM      29.91R
WHEATON        CLOUDY    37  28  70 CALM      29.93S
MORRIS         CLOUDY    34  28  80 CALM      29.91R
ALEXANDRIA     FAIR      32  29  88 W3        29.90F
ELBOW LAKE     FAIR      30  29  94 CALM      29.91S
WADENA         FAIR      30  27  86 W6        29.89S WCI  24
GLENWOOD       FAIR      36  30  80 W6        29.91R
APPLETON       CLOUDY    36  30  80 CALM      29.92S
BENSON         CLOUDY    34  30  86 CALM      29.93S
ORTONVILLE     CLOUDY    37  28  70 W5        29.92S
MADISON        CLOUDY    39  30  70 SW3       29.93S
WILLMAR        FAIR      36  30  80 SW3       29.95R
$$
MNZ033>034-036-042>043-049>051-058-059-210300-
   Central Minnesota

CITY           SKY/WX    TMP DP  RH WIND       PRES   REMARKS
ST CLOUD       FAIR      31  29  92 CALM      29.90S
SAUK CENTRE      N/A     34  30  85 CALM      29.91S
PAYNESVILLE    MOCLDY    32  32  98 CALM      29.92R
AITKIN         FAIR      32  25  74 W3        29.87S
PINE RIVER     FAIR      25  21  86 CALM      29.93R
BRAINERD       FAIR      30  24  78 CALM      29.89S
STAPLES        FAIR      27  25  93 CALM      29.90R
LONG PRAIRIE   FAIR      30  28  93 CALM      29.90F
LITTLE FALLS     N/A    N/A N/A N/A CALM        N/A
LITCHFIELD     FAIR      36  32  87 CALM      29.93R
BUFFALO        FAIR      34  29  84 CALM      29.93S
MAPLE LAKE     FAIR      35  32  88 MISG      29.93R
HUTCHINSON     FAIR      32  31  94 W3        29.94S
$$
MNZ037-044-045-052-053-210300-
   East Central Minnesota

CITY           SKY/WX    TMP DP  RH WIND       PRES   REMARKS
PRINCETON      FAIR      30  28  93 CALM      29.91S
MORA           FAIR      32  28  86 CALM      29.91F
CAMBRIDGE        N/A     34  25  69 CALM      29.91S
RUSH CITY      FAIR      31  28  88 CALM      29.90F
MOOSE LAKE     FAIR      30  27  86 CALM      29.87S
HINCKLEY       FAIR      30  30 100 CALM      29.90R
CLOQUET        FAIR      34  27  75 W5        29.87S WCI  30
MCGREGOR       FAIR      32  28  86 CALM      29.89S
$$
MNZ071>073-080-081-089-090-097-098-210300-
   Southwest Minnesota

CITY           SKY/WX    TMP DP  RH WIND       PRES   REMARKS
MONTEVIDEO     CLOUDY    37  28  70 CALM      29.93S
GRANITE FALLS  CLOUDY    37  32  81 CALM      29.94S
CANBY          CLOUDY    36  28  72 SW3       29.94R
MARSHALL       CLOUDY    33  27  78 NW3       29.93S
REDWOOD FALLS  PTCLDY    38  31  76 CALM      29.92S
OLIVIA         CLOUDY    34  30  86 CALM      29.92S
PIPESTONE      CLOUDY    36  28  75 CALM      29.90R
WINDOM         CLOUDY    34  19  55 N5        29.91R WCI  30
WORTHINGTON    CLOUDY    36  32  85 N6        29.91R
JACKSON        CLOUDY    32  30  93 NE3       29.91S
TRACY          CLOUDY    38  30  72 N5        29.91S
SLAYTON        CLOUDY    35  29  80 N3        29.92R
$$
MNZ065>067-074>077-082>085-091>093-210300-
   South Central Minnesota

CITY           SKY/WX    TMP DP  RH WIND       PRES   REMARKS
MANKATO        FAIR      33  30  88 CALM      29.93R
NEW ULM        CLOUDY    37  28  70 CALM      29.92S
ST JAMES       CLOUDY    32  28  86 CALM      29.93R
FAIRMONT       CLOUDY    35  32  88 NE3       29.91S
FARIBAULT      FAIR      30  28  93 CALM      29.93S
OWATONNA       FAIR      30  28  93 CALM      29.92S
WASECA         FAIR      32  30  93 E3        29.93S
ALBERT LEA     FAIR      34  30  86 CALM      29.91S
$$
MNZ078>079-086>088-094>096-210300-
   Southeast Minnesota

CITY           SKY/WX    TMP DP  RH WIND       PRES   REMARKS
ROCHESTER      FAIR      36  31  82 CALM      29.91S
RED WING       FAIR      30  27  86 CALM      29.93S
STANTON        FAIR      30  28  92 S3        29.92S
DODGE CENTER   FAIR      32  30  93 CALM      29.92R
WINONA         FAIR      30  28  93 CALM      29.93R
AUSTIN         FAIR      34  30  86 CALM      29.91S
PRESTON        FAIR      35  30  83 CALM      29.92S
$$
ABBREVIATIONS USED IN REMARKS
   TC - TEMPERATURES IN CELSIUS
  WCI - WIND CHILL INDEX
   HX - HEAT INDEX
  VSB - VISIBILITY
$$




USA.gov is the U.S. government's official web portal to all federal, state and local government web resources and services.